Weather History for KW29 - November, 2013

Change the Weather History Date:

Thursday, November 7, 2013

  Actual Average (KESN) Record (KESN)
Temperature  
Mean Temperature 55 °F -  
Max Temperature 62 °F 59 °F 75 °F (1975)
Min Temperature 46 °F 39 °F 25 °F (1962)
Degree Days  
Heating Degree Days 10    
Growing Degree Days 5 (Base 50)    
Moisture  
Dew Point 48 °F    
Average Humidity 76    
Maximum Humidity 100    
Minimum Humidity 46    
Precipitation  
Precipitation 0.00 in - - ()
Sea Level Pressure  
Sea Level Pressure 29.96 in    
Wind  
Wind Speed 10 mph (WSW)    
Max Wind Speed 22 mph    
Max Gust Speed 30 mph    
Visibility 10 miles    
Events Rain    
Averages and records for this station are not official NWS values.
T = Trace of Precipitation, MM = Missing Value Source: NWS Daily Summary

Daily Weather History Graph

Daily Weather History Graph

Search for Another Location

Airport or City:

Trip Planner

Search our weather history database for the weather conditions in past years. The results will help you decide how hot, cold, wet, or windy it might be!

Date:

Astronomy

Nov. 07, 2013 Rise Set
Actual Time 6:39 AM EST 4:58 PM EST
Civil Twilight 6:11 AM EST 5:26 PM EST
Nautical Twilight 5:39 AM EST 5:57 PM EST
Astronomical Twilight 5:08 AM EST 6:29 PM EST
Moon 10:45 AM EST (11/7) 9:07 PM EST (11/7)
Length of Visible Light 11h 14m
Length of Day
10h 18m
Waxing Crescent, 22% of the Moon is Illuminated
Nov 7
Waxing Crescent
Nov 10
First Quarter
Nov 17
Full
Nov 25
Last Quarter
Dec 2
New

Hourly Weather History & Observations

Time (EST) Temp. Windchill Dew Point Humidity Pressure Visibility Wind Dir Wind Speed Gust Speed Precip Events Conditions
12:09 AM 59.0 °F - 57.2 °F 94% 30.08 in 10.0 mi South 8.1 mph - N/A   Clear
12:29 AM 59.0 °F - 57.2 °F 94% 30.07 in 10.0 mi South 9.2 mph - N/A   Clear
12:49 AM 59.0 °F - 57.2 °F 94% 30.06 in 10.0 mi South 5.8 mph - N/A   Clear
1:09 AM 59.0 °F - 55.4 °F 88% 30.06 in 10.0 mi South 9.2 mph - N/A   Clear
1:29 AM 59.0 °F - 55.4 °F 88% 30.04 in 10.0 mi SSE 10.4 mph - N/A   Clear
1:49 AM 59.0 °F - 55.4 °F 88% 30.04 in 10.0 mi South 9.2 mph - N/A   Clear
2:09 AM 59.0 °F - 57.2 °F 94% 30.03 in 10.0 mi South 6.9 mph - N/A   Mostly Cloudy
2:29 AM 59.0 °F - 55.4 °F 88% 30.02 in 10.0 mi South 9.2 mph - N/A   Overcast
2:49 AM 59.0 °F - 55.4 °F 88% 30.01 in 10.0 mi South 9.2 mph - N/A   Overcast
3:09 AM 59.0 °F - 55.4 °F 88% 30.00 in 10.0 mi South 6.9 mph - N/A   Overcast
3:29 AM 59.0 °F - 57.2 °F 94% 29.99 in 10.0 mi SSW 8.1 mph - N/A   Overcast
3:49 AM 59.0 °F - 57.2 °F 94% 29.98 in 10.0 mi South 8.1 mph - N/A   Overcast
4:10 AM 59.0 °F - 57.2 °F 94% 29.97 in 10.0 mi South 8.1 mph - N/A   Mostly Cloudy
4:30 AM 59.0 °F - 57.2 °F 94% 29.97 in 10.0 mi South 8.1 mph - N/A   Clear
4:50 AM 59.0 °F - 57.2 °F 94% 29.96 in 10.0 mi SSW 6.9 mph - N/A   Clear
5:10 AM 57.2 °F - 57.2 °F 100% 29.95 in 10.0 mi SSW 6.9 mph - N/A   Clear
5:30 AM 57.2 °F - 57.2 °F 100% 29.95 in 10.0 mi South 6.9 mph - N/A   Clear
5:50 AM 57.2 °F - 57.2 °F 100% 29.94 in 10.0 mi South 9.2 mph - N/A   Clear
6:10 AM 57.2 °F - 57.2 °F 100% 29.93 in 10.0 mi South 6.9 mph - N/A   Clear
6:30 AM 57.2 °F - 57.2 °F 100% 29.93 in 10.0 mi SSW 9.2 mph - N/A   Mostly Cloudy
6:50 AM 59.0 °F - 57.2 °F 94% 29.92 in 10.0 mi South 6.9 mph 16.1 mph N/A   Overcast
7:10 AM 59.0 °F - 57.2 °F 94% 29.92 in 10.0 mi SSW 6.9 mph - N/A   Overcast
7:30 AM 59.0 °F - 57.2 °F 94% 29.91 in 10.0 mi SSW 8.1 mph - N/A   Overcast
7:50 AM 59.0 °F - 59.0 °F 100% 29.90 in 10.0 mi South 9.2 mph 16.1 mph N/A   Mostly Cloudy
8:10 AM 59.0 °F - 59.0 °F 100% 29.92 in 10.0 mi SW 6.9 mph - N/A   Scattered Clouds
8:30 AM 60.8 °F - 59.0 °F 94% 29.91 in 10.0 mi SSW 5.8 mph - N/A   Mostly Cloudy
8:50 AM 60.8 °F - 59.0 °F 94% 29.91 in 10.0 mi SSW 5.8 mph - N/A   Overcast
9:10 AM 60.8 °F - 59.0 °F 94% 29.91 in 10.0 mi SSW 6.9 mph - N/A   Overcast
9:30 AM 60.8 °F - 59.0 °F 94% 29.90 in 10.0 mi SSW 8.1 mph - N/A   Mostly Cloudy
9:50 AM 60.8 °F - 59.0 °F 94% 29.89 in 10.0 mi SSW 5.8 mph - N/A   Scattered Clouds
10:10 AM 62.6 °F - 59.0 °F 88% 29.89 in 10.0 mi SW 4.6 mph - N/A   Scattered Clouds
10:30 AM 62.6 °F - 57.2 °F 82% 29.89 in 10.0 mi SW 4.6 mph - N/A   Mostly Cloudy
10:50 AM 62.6 °F - 59.0 °F 88% 29.88 in 10.0 mi West 3.5 mph - N/A   Scattered Clouds
11:10 AM 62.6 °F - 57.2 °F 82% 29.87 in 10.0 mi West 4.6 mph - N/A   Clear
11:30 AM 62.6 °F - 57.2 °F 82% 29.87 in 10.0 mi West 5.8 mph - N/A   Clear
11:50 AM 62.6 °F - 57.2 °F 82% 29.86 in 10.0 mi WNW 3.5 mph - N/A   Clear
12:10 PM 62.6 °F - 55.4 °F 77% 29.86 in 10.0 mi West 6.9 mph - N/A   Scattered Clouds
12:30 PM 62.6 °F - 53.6 °F 72% 29.86 in 10.0 mi WNW 17.3 mph 23.0 mph N/A   Scattered Clouds
12:50 PM 60.8 °F - 53.6 °F 77% 29.87 in 10.0 mi WNW 17.3 mph 23.0 mph N/A   Mostly Cloudy
1:11 PM 57.2 °F - 53.6 °F 88% 29.88 in 10.0 mi NW 15.0 mph 25.3 mph N/A Rain Light Rain
1:31 PM 57.2 °F - 53.6 °F 88% 29.89 in 10.0 mi NW 12.7 mph - N/A   Mostly Cloudy
1:51 PM 55.4 °F - 51.8 °F 88% 29.89 in 10.0 mi WNW 13.8 mph 19.6 mph N/A   Scattered Clouds
2:11 PM 57.2 °F - 46.4 °F 67% 29.88 in 10.0 mi WNW 15.0 mph 24.2 mph N/A   Scattered Clouds
2:31 PM 57.2 °F - 48.2 °F 72% 29.89 in 10.0 mi WNW 11.5 mph 20.7 mph N/A   Scattered Clouds
2:51 PM 57.2 °F - 48.2 °F 72% 29.89 in 10.0 mi WNW 12.7 mph 25.3 mph N/A   Scattered Clouds
3:11 PM 59.0 °F - 46.4 °F 63% 29.89 in 10.0 mi NW 16.1 mph - N/A   Mostly Cloudy
3:31 PM 59.0 °F - 48.2 °F 67% 29.90 in 10.0 mi NNW 13.8 mph 19.6 mph N/A   Mostly Cloudy
3:51 PM 55.4 °F - 42.8 °F 63% 29.91 in 10.0 mi NW 20.7 mph 29.9 mph N/A   Mostly Cloudy
4:11 PM 55.4 °F - 42.8 °F 63% 29.92 in 10.0 mi NW 13.8 mph 23.0 mph N/A   Scattered Clouds
4:31 PM 55.4 °F - 41.0 °F 58% 29.93 in 10.0 mi NW 15.0 mph 25.3 mph N/A   Scattered Clouds
4:51 PM 53.6 °F - 37.4 °F 54% 29.94 in 10.0 mi WNW 21.9 mph 26.5 mph N/A   Scattered Clouds
5:11 PM 53.6 °F - 35.6 °F 51% 29.95 in 10.0 mi NW 13.8 mph 25.3 mph N/A   Clear
5:31 PM 53.6 °F - 37.4 °F 54% 29.96 in 10.0 mi NW 12.7 mph - N/A   Clear
5:51 PM 51.8 °F - 35.6 °F 54% 29.97 in 10.0 mi WNW 11.5 mph 17.3 mph N/A   Clear
6:11 PM 51.8 °F - 35.6 °F 54% 29.98 in 10.0 mi WNW 12.7 mph 18.4 mph N/A   Clear
6:31 PM 51.8 °F - 35.6 °F 54% 29.99 in 10.0 mi NW 12.7 mph 19.6 mph N/A   Clear
6:51 PM 51.8 °F - 37.4 °F 58% 29.99 in 10.0 mi WNW 11.5 mph 16.1 mph N/A   Clear
7:11 PM 51.8 °F - 37.4 °F 58% 30.00 in 10.0 mi WNW 10.4 mph - N/A   Scattered Clouds
7:31 PM 51.8 °F - 35.6 °F 54% 30.01 in 10.0 mi WNW 11.5 mph - N/A   Scattered Clouds
7:51 PM 51.8 °F - 35.6 °F 54% 30.02 in 10.0 mi WNW 12.7 mph 18.4 mph N/A   Scattered Clouds
8:11 PM 51.8 °F - 35.6 °F 54% 30.02 in 10.0 mi WNW 11.5 mph - N/A   Clear
8:31 PM 50.0 °F - 33.8 °F 54% 30.02 in 10.0 mi WNW 15.0 mph 19.6 mph N/A   Clear
8:51 PM 50.0 °F - 33.8 °F 54% 30.02 in 10.0 mi WNW 17.3 mph 23.0 mph N/A   Scattered Clouds
9:11 PM 50.0 °F - 32.0 °F 50% 30.03 in 10.0 mi WNW 19.6 mph 25.3 mph N/A   Clear
9:32 PM 50.0 °F - 32.0 °F 50% 30.04 in 10.0 mi WNW 12.7 mph 24.2 mph N/A   Clear
9:52 PM 50.0 °F - 30.2 °F 47% 30.04 in 10.0 mi WNW 13.8 mph 20.7 mph N/A   Clear
10:12 PM 48.2 °F - 30.2 °F 50% 30.04 in 10.0 mi WNW 10.4 mph - N/A   Clear
10:32 PM 48.2 °F - 32.0 °F 54% 30.04 in 10.0 mi NW 11.5 mph - N/A   Scattered Clouds
10:52 PM 50.0 °F - 30.2 °F 47% 30.03 in 10.0 mi WNW 13.8 mph - N/A   Scattered Clouds
11:12 PM 48.2 °F - 30.2 °F 50% 30.04 in 10.0 mi WNW 13.8 mph - N/A   Scattered Clouds
11:32 PM 48.2 °F - 28.4 °F 46% 30.05 in 10.0 mi WNW 19.6 mph 26.5 mph N/A   Overcast
11:52 PM 46.4 °F 38.5 °F 28.4 °F 50% 30.06 in 10.0 mi WNW 21.9 mph 26.5 mph N/A   Overcast